Location: Cau Dat
(11.8833°N, 108.5500°E)
Time: 15:14:40
(UTC+00:00)

Daily predictions for brighter satellites

Satellite Brightness Start Highest point End
(mag) Time Altitude Azimuth Time Altitude Azimuth Time Altitude Azimuth
DELTA 2 R/B (1) 3.9 12:03:38 10° WSW 12:09:09 68° NW 12:14:41 10° NE
S3M 4.0 12:02:45 10° N 12:09:10 80° E 12:15:31 10° S
SJ-11-01 4.2 12:07:17 10° SSE 12:11:54 65° ENE 12:16:30 10° N
SL-16 R/B 2.8 12:11:32 10° SSW 12:17:05 59° WNW 12:22:39 10° N
HJ-1C 3.5 12:14:18 11° S 12:17:29 74° W 12:20:47 10° NNW
CZ-2C R/B 3.3 12:12:51 10° SSE 12:18:40 73° ENE 12:24:21 10° N
ARGOS 3.5 12:15:05 17° SE 12:18:55 45° ENE 12:24:03 10° N
Cosmos 1818 3.5 12:14:19 10° SSW 12:19:42 82° ESE 12:25:06 10° NNE
USA 215 3.2 12:16:43 10° NE 12:23:13 74° SE 12:29:43 10° SSW
Meteor 2-14 Rocket 4.4 12:17:19 10° S 12:23:23 65° E 12:29:27 10° NNE
Meteor 2-21 4.4 12:17:51 10° S 12:24:02 73° E 12:30:12 10° N
Ariane H10 3.9 12:20:14 10° WSW 12:24:51 33° SSW 12:25:32 29° SSE
CZ-2C R/B 3.9 12:20:25 10° NNE 12:25:04 55° ESE 12:29:41 10° S
Centaur D-1A AC-32 2.6 12:17:19 10° WNW 12:26:13 74° SSW 12:27:59 31° SE
Cosmos 1726 Rocket 3.8 12:22:33 10° N 12:26:52 50° E 12:28:45 30° SE
Cosmos 883 Rocket 4.4 12:25:07 10° N 12:31:20 71° E 12:36:37 15° SSE
ATLAS 5 CENTAUR R/B 1.7 12:28:32 10° SSW 12:32:31 62° WNW 12:36:29 10° NNE
SL-08 RB Rocket 4.1 12:31:59 35° ESE 12:33:05 42° ENE 12:37:17 10° N
Cosmos 1626 4.1 12:33:08 10° SSW 12:36:23 29° W 12:39:38 10° NNW
GPS 2-18 Rocket1 4.4 12:33:18 10° W 12:36:39 33° NNW 12:38:42 19° NE
CZ-2C R/B 2.6 12:32:00 10° N 12:37:17 82° WNW 12:42:28 10° SSW
Cosmos 858 Rocket 4.4 12:32:24 10° N 12:37:39 74° ENE 12:40:10 31° SSE
Cosmos 1244 Rocket 4.3 12:31:34 10° S 12:37:41 80° E 12:43:48 10° N
Intelsat 5-2 Rocket 4.0 12:40:17 10° NW 12:42:10 18° NNE 12:42:10 18° NNE
Hubble Space Telescope 0.7 12:41:42 10° WSW 12:45:49 83° NNW 12:46:54 48° NE
Cosmos 1898 Rocket 4.2 12:43:35 10° NNW 12:48:36 52° WSW 12:52:08 19° S
GEOS 3 Rocket 4.0 12:44:06 10° NNE 12:49:25 68° WNW 12:54:40 10° SW
Ariane Rocket 2.9 12:48:39 34° SSE 12:50:54 89° WSW 12:56:00 10° NNW
IRS-1A Rocket 4.1 12:51:14 34° SSE 12:53:47 89° ENE 12:59:18 10° NNW
Meteor 1-21 Rocket 4.2 12:54:34 43° SSE 12:56:18 62° E 13:02:06 10° NNE
SL-08 ROCKET BODY 4.4 12:57:08 50° ESE 12:57:41 52° E 13:03:23 10° NNE
Palapa B4 Rocket 4.0 12:50:10 10° WSW 12:59:18 87° SSE 13:01:28 43° ENE
NOSS 3-1 (C) 4.3 12:51:38 10° NNW 13:00:09 70° ENE 13:03:45 40° SE
Cosmos 1626 Rocket 3.9 12:59:01 32° SSW 13:00:56 63° W 13:05:19 10° N
Cosmos 2058 Rocket 2.9 12:57:30 10° N 13:01:58 87° E 13:01:59 87° ESE
MOS 1 4.2 13:01:16 46° SSE 13:03:05 90° WSW 13:08:46 10° NNW
H-2A R/B 3.3 12:58:58 13° SSW 13:03:21 39° W 13:08:23 10° NNW
Cosmos 2322 Rocket 4.5 13:00:14 10° WSW 13:04:37 23° WNW 13:08:59 10° NNW
USA 186 3.8 13:09:58 27° W 13:09:58 27° W 13:12:45 10° NW
SPOT 3 Rocket 4.0 13:11:50 48° NE 13:11:50 48° NE 13:16:02 10° N
Intelsat 5-1 Rocket 3.4 13:08:15 10° W 13:10:20 24° W 13:10:20 24° W
Timation 1 Rocket 4.2 13:07:56 10° NNW 13:13:54 88° WSW 13:14:43 69° SSE
NOSS 3-3 (A) 3.5 13:08:32 10° SSW 13:14:04 84° ESE 13:19:50 10° NNE
NOSS 3-3 (C) 3.5 13:13:24 67° S 13:14:10 83° ESE 13:19:56 10° NNE
USA 229 DEB 3.9 13:06:58 10° NNW 13:14:33 75° ENE 13:16:15 57° SE
USA 229 3.9 13:07:03 10° NNW 13:14:39 74° ENE 13:16:19 57° SE
NOSS 3-1 (A) 4.2 13:16:45 10° NNW 13:25:14 65° ENE 13:26:41 58° ESE
CZ-3A R/B 3.1 13:06:11 10° WSW 13:25:47 59° SSE 13:26:03 59° SSE
Cosmos 2322 3.8 13:26:59 62° SW 13:27:47 72° WNW 13:33:28 10° N
Milstar 3 Cent rocket 2.4 13:28:20 10° WNW 13:32:54 73° WSW 13:32:54 73° WSW
Cosmos 2285 Rocket 4.2 13:29:01 10° NNW 13:35:13 64° WSW 13:35:43 61° SW
Cosmos 2219 Rocket 3.8 13:44:18 25° NNE 13:44:18 25° NNE 13:46:29 10° NNE
Cosmos 2360 Rocket 4.5 13:38:31 10° WSW 13:42:41 21° WNW 13:46:51 10° NNW
Cosmos 2333 Rocket 3.5 13:51:57 34° N 13:51:57 34° N 13:55:07 10° N
Cosmos 2263 Rocket 3.2 13:49:34 10° NNW 13:53:25 42° NW 13:53:25 42° NW
CZ-4C R/B 4.5 18:24:35 10° N 18:30:20 32° NE 18:30:20 32° NE
Hubble Space Telescope 4.1 19:36:10 11° ENE 19:36:10 11° ENE 19:36:21 10° ENE
Cosmos 2082 Rocket 3.3 19:44:08 41° ENE 19:44:08 41° ENE 19:48:09 10° NNE
IDEFIX/ARIANE 42P 4.1 19:49:12 10° N 19:51:43 30° N 19:51:43 30° N
CZ-3B R/B 3.4 20:00:48 59° WNW 20:02:09 67° NNW 20:07:00 10° NE
Cosmos 1833 Rocket 4.0 20:07:02 29° NNW 20:07:02 29° NNW 20:10:00 10° N
Tsikada Rocket 3.9 20:17:37 10° N 20:24:01 79° W 20:25:04 63° SSW
IUS-13 SRM-1 4.3 20:31:57 20° SE 20:31:57 20° SE 20:33:08 10° ESE
H-2A R/B 2.1 20:34:35 77° SE 20:34:52 83° ENE 20:39:20 10° N
deb Chang Zheng 4 3.5 20:34:42 10° N 20:38:33 69° NNW 20:38:33 69° NNW
CZ-3 R/B 4.3 19:48:58 10° WNW 20:39:04 66° NNE 20:49:34 10° E
CZ-3A R/B 3.5 20:43:53 15° NNW 20:46:41 35° NNE 20:56:43 10° E
Cosmos 1464 Rocket 3.9 20:44:07 29° S 20:47:32 84° W 20:53:55 10° N
CZ-4B R/B 4.0 20:47:14 10° SE 20:49:49 21° ENE 20:52:28 10° NNE
ASTRO F (AKARI) 4.4 20:49:03 10° N 20:52:28 82° N 20:52:28 82° N
CENTAUR R/B 4.0 20:48:27 10° SSE 20:52:37 24° ESE 20:57:02 10° ENE
Cosmos 2034 Rocket 4.2 20:47:14 13° S 20:52:49 71° E 20:58:56 10° N
GPS 2-14 Rocket1 4.1 20:51:59 26° NW 20:53:07 30° N 20:56:49 10° NE
Cosmos 1544 3.0 20:52:58 69° SSE 20:53:19 80° E 20:56:54 10° N
Ariane H10+ 3.9 20:51:30 40° SW 20:53:29 61° SSE 21:21:35 10° E
Ariane H10+ 3.9 20:51:30 40° SW 20:53:29 61° SSE 21:21:34 10° E
Cosmos 1743 3.9 20:55:04 29° NW 20:55:04 29° NW 20:57:20 10° NNW
Meteor 1-31 Rocket 4.1 20:50:26 10° NNE 20:54:05 38° E 20:56:58 15° SSE
OE (NEXTSAT) 4.4 20:54:57 68° SE 20:54:57 68° SE 20:58:22 10° NE
Cosmos 1378 4.5 20:55:52 10° NNE 20:59:23 40° E 21:02:54 10° SSE
Cosmos 1656 3.9 20:54:22 10° N 20:59:45 68° ENE 21:05:12 10° SSE
Meteor 1-23 Rocket 4.2 20:55:47 10° N 21:01:33 89° E 21:07:21 10° S
Sich 1 Rocket 4.4 20:57:37 10° S 21:02:03 51° E 21:06:29 10° NNE
SAR-Lupe-4 4.4 21:00:37 10° SSE 21:04:04 49° ENE 21:07:31 10° N
Atlas Centaur 2 4.4 21:07:12 16° SSW 21:07:12 16° SSW 21:10:15 10° S
Landsat 5 3.8 21:05:42 41° WSW 21:05:51 42° WSW 21:09:44 10° NNW
GPS 2-12 Rocket1 4.3 21:04:48 14° NW 21:08:10 37° N 21:12:17 10° ENE
Cosmos 1484 Rocket 3.0 21:06:41 10° NNE 21:10:30 66° E 21:13:30 15° S
NOSS 3-2 (C) 4.0 21:06:29 12° S 21:11:17 47° ESE 21:16:36 10° NE
Cosmos 1378 Rocket 3.4 21:08:07 10° N 21:12:31 80° W 21:16:57 10° S
Hubble Space Telescope 0.9 21:11:34 15° WNW 21:14:57 72° NNE 21:19:04 10° ESE
Cosmos 1782 Rocket 3.7 21:14:24 26° SSW 21:16:41 52° W 21:21:01 10° N
ERS-2 4.5 21:22:04 11° WNW 21:22:04 11° WNW 21:22:12 10° WNW
SAR-Lupe-1 4.0 21:17:49 10° SSE 21:21:21 89° E 21:24:55 10° NNW
CZ-4B R/B 3.8 21:18:16 10° N 21:22:22 74° W 21:25:37 15° SSW
Palapa B4 Rocket 4.0 21:20:06 23° W 21:23:07 51° SSW 21:30:26 10° ESE
CZ-2C R/B 3.5 21:19:35 10° NNW 21:23:18 23° WNW 21:24:31 21° W
Cosmos 2082 Rocket 4.1 21:26:00 11° WNW 21:26:41 11° WNW 21:28:15 10° NW
SWIFT 4.2 21:23:10 10° NW 21:26:43 25° N 21:30:17 10° ENE
NOSS 3-2 (A) 3.3 21:25:34 19° SW 21:29:15 54° WNW 21:34:45 10° NNE
Meteor PRIRODA 4.2 21:27:02 10° NNE 21:30:37 58° E 21:34:12 10° S
Cosmos 1674 Rocket 4.4 21:28:20 10° NNW 21:32:02 28° W 21:34:53 15° SW
Cosmos 1689 Rocket 3.6 21:31:36 10° SSE 21:34:24 39° ENE 21:37:13 10° N
Cosmos 921 Rocket 2.9 21:31:37 10° NNW 21:35:57 85° W 21:40:13 10° S
Cosmos 1842 4.2 21:34:12 10° N 21:38:01 51° E 21:41:51 10° SSE
Meteor 1-12 Rocket 4.3 21:35:58 10° S 21:41:35 84° E 21:47:14 10° N
BREEZE-M DEB (TANK) 3.8 21:40:22 10° SSW 21:42:34 37° ESE 21:47:12 10° NE
Okean 2 3.3 21:44:18 10° N 21:48:21 78° W 21:52:25 10° S
Cosmos 1697 Rocket 2.6 21:42:48 10° NNW 21:48:24 78° WSW 21:53:59 10° SSE
Okean 2 Rocket 3.1 21:44:29 10° SSW 21:48:51 64° W 21:53:11 10° N
H-2A R/B 2.5 21:45:09 10° NNE 21:49:25 85° ESE 21:53:30 10° S
Cosmos 1867 3.9 21:45:22 10° SW 21:50:34 50° WNW 21:55:49 10° N
Delta 198 4.4 21:46:26 10° NW 21:50:44 43° NNE 21:54:29 10° E
SL-27 R/B 3.6 21:48:10 12° SW 21:50:57 27° WNW 21:54:01 10° NNW
Sylda 4400 3.6 21:50:27 12° WSW 21:53:00 28° S 21:55:08 10° ESE
METEOR-M 4.4 21:48:39 10° N 21:53:47 50° WNW 21:58:55 10° SSW
ATLAS 2A CENTAUR R/B 3.7 21:53:13 10° NW 21:56:22 22° NNE 22:03:51 10° ENE
ARIANE 5 R/B 4.2 21:54:21 10° SW 21:58:38 34° SSE 22:20:12 10° E
SJ-12 4.3 21:56:33 10° N 22:00:28 44° WNW 22:04:21 10° SSW
ALOS 3.1 21:56:34 10° NNW 22:00:38 31° WNW 22:04:43 10° SW
ARIANE 44LP R/B 3.1 22:00:15 10° WSW 22:02:42 20° S 22:04:22 10° SE
USA 238 4.5 21:57:09 10° WSW 22:02:50 31° WNW 22:08:35 10° N
ERBS 2.2 22:01:13 10° SSW 22:04:32 82° WNW 22:07:49 10° NNE
Cosmos 1092 Rocket 4.4 22:00:12 10° N 22:06:30 75° E 22:12:46 10° S
ARIANE 5 R/B 4.4 22:12:15 10° W 22:30:40 58° S 22:35:09 10° ESE
H-2A R/B 4.0 22:11:15 10° WNW 22:44:45 44° SW 22:49:49 10° SSE
